This is the latest recevied weather packets stored in our database for station/object NorthRyde. If no packets are shown the sender has not sent any weather packets the latest 10 day(s).
| Time | Temp. | Humidity | Pressure | Rain* | Wind** | Luminosity | Snow |
|---|---|---|---|---|---|---|---|
| 1777589323 | 16.11° C | 95% | 1031.1 hPa | 0 mm | - | 176 W/m² | - |
| 1777589258 | 16.11° C | 95% | 1031.1 hPa | 0 mm | - | 176 W/m² | - |
| 1777589197 | 16.11° C | 95% | 1031.1 hPa | 0 mm | - | 172 W/m² | - |
| 1777589139 | 16.11° C | 95% | 1031.2 hPa | 0 mm | - | 172 W/m² | - |
| 1777589076 | 16.11° C | 95% | 1031.1 hPa | 0 mm | - | 172 W/m² | - |
| 1777589019 | 16.11° C | 95% | 1031.1 hPa | 0 mm | - | 172 W/m² | - |
| 1777588957 | 16.11° C | 95% | 1031.1 hPa | 0 mm | - | 171 W/m² | - |
| 1777588897 | 16.11° C | 95% | 1031.1 hPa | 0 mm | - | 167 W/m² | - |
| 1777588837 | 16.11° C | 95% | 1031.2 hPa | 0 mm | - | 165 W/m² | - |
| 1777588779 | 16.11° C | 95% | 1031 hPa | 0 mm | - | 165 W/m² | - |
| 1777588721 | 16.11° C | 95% | 1031.1 hPa | 0 mm | - | 163 W/m² | - |
| 1777588655 | 16.11° C | 95% | 1031.1 hPa | 0 mm | - | 162 W/m² | - |
| 1777588597 | 16.11° C | 95% | 1031.1 hPa | 0 mm | - | 160 W/m² | - |
| 1777588535 | 16.11° C | 95% | 1031.1 hPa | 0 mm | - | 156 W/m² | - |
| 1777588471 | 16.11° C | 95% | 1031.1 hPa | 0 mm | - | 156 W/m² | - |
| 1777588403 | 16.11° C | 95% | 1031.1 hPa | 0 mm | - | 153 W/m² | - |
| 1777588345 | 16.11° C | 95% | 1031.1 hPa | 0 mm | - | 149 W/m² | - |
| 1777588282 | 16.11° C | 95% | 1031.1 hPa | 0 mm | - | 142 W/m² | - |
| 1777588224 | 16.11° C | 95% | 1031 hPa | 0 mm | - | 139 W/m² | - |
| 1777588161 | 16.11° C | 95% | 1031 hPa | 0 mm | - | 135 W/m² | - |
| 1777588098 | 16.11° C | 95% | 1030.9 hPa | 0 mm | - | 132 W/m² | - |
| 1777588031 | 16.11° C | 94% | 1031.1 hPa | 0 mm | - | 128 W/m² | - |
| 1777587972 | 16.11° C | 94% | 1031 hPa | 0 mm | - | 127 W/m² | - |
| 1777587911 | 15.56° C | 94% | 1031 hPa | 0 mm | - | 128 W/m² | - |
| 1777587865 | 15.56° C | 94% | 1031 hPa | 0 mm | - | 128 W/m² | - |
* Rain latest hour (hover to see other rain measurements)
** Current wind speed in m/s (hover to see current wind gust speed)